TimeEDT,TemperatureF,Dew PointF,Humidity,Sea Level PressureIn,VisibilityMPH,Wind Direction,Wind SpeedMPH,Gust SpeedMPH,PrecipitationIn,Events,Conditions,WindDirDegrees,DateUTC
12:53 AM,46.9,41.0,80,30.22,10.0,Calm,Calm,-,N/A,,Overcast,0,2012-10-09 04:53:00
2:53 AM,46.0,39.9,79,30.21,10.0,Calm,Calm,-,N/A,,Overcast,0,2012-10-09 06:53:00
3:53 AM,46.0,39.9,79,30.20,10.0,Calm,Calm,-,N/A,,Overcast,0,2012-10-09 07:53:00
4:21 AM,46.4,41.0,81,30.19,10.0,Calm,Calm,-,N/A,,Overcast,0,2012-10-09 08:21:00
4:53 AM,46.9,41.0,80,30.21,9.0,Calm,Calm,-,N/A,,Overcast,0,2012-10-09 08:53:00
5:53 AM,46.9,39.9,77,30.20,10.0,Calm,Calm,-,N/A,,Overcast,0,2012-10-09 09:53:00
6:53 AM,46.9,39.9,77,30.20,10.0,Calm,Calm,-,N/A,,Overcast,0,2012-10-09 10:53:00
7:53 AM,48.0,41.0,77,30.20,10.0,Calm,Calm,-,N/A,,Overcast,0,2012-10-09 11:53:00
8:53 AM,51.1,41.0,68,30.21,10.0,Calm,Calm,-,N/A,,Overcast,0,2012-10-09 12:53:00
9:53 AM,52.0,41.0,66,30.21,10.0,Calm,Calm,-,N/A,,Overcast,0,2012-10-09 13:53:00
10:53 AM,54.0,42.1,64,30.19,10.0,North,5.8,-,N/A,,Overcast,10,2012-10-09 14:53:00
11:53 AM,57.0,42.1,57,30.18,10.0,NE,4.6,-,N/A,,Overcast,50,2012-10-09 15:53:00
12:53 PM,59.0,42.1,53,30.15,10.0,ENE,4.6,-,N/A,,Overcast,60,2012-10-09 16:53:00
1:23 PM,59.0,42.8,55,30.13,10.0,Variable,3.5,-,N/A,,Overcast,0,2012-10-09 17:23:00
1:53 PM,60.1,42.1,51,30.12,10.0,Calm,Calm,-,N/A,,Overcast,0,2012-10-09 17:53:00
2:53 PM,61.0,43.0,52,30.12,10.0,Calm,Calm,-,N/A,,Overcast,0,2012-10-09 18:53:00
3:53 PM,61.0,44.1,54,30.10,10.0,NE,3.5,-,N/A,,Overcast,40,2012-10-09 19:53:00
4:53 PM,61.0,44.1,54,30.09,10.0,Calm,Calm,-,N/A,,Overcast,0,2012-10-09 20:53:00
5:53 PM,60.1,45.0,57,30.10,10.0,Variable,3.5,-,N/A,,Scattered Clouds,0,2012-10-09 21:53:00
6:53 PM,57.0,46.9,69,30.10,10.0,Calm,Calm,-,N/A,,Overcast,0,2012-10-09 22:53:00
7:53 PM,55.0,48.0,77,30.10,10.0,Calm,Calm,-,N/A,,Mostly Cloudy,0,2012-10-09 23:53:00
8:53 PM,54.0,46.9,77,30.09,10.0,Calm,Calm,-,N/A,,Overcast,0,2012-10-10 00:53:00
9:53 PM,53.1,46.9,80,30.08,8.0,Calm,Calm,-,N/A,,Overcast,0,2012-10-10 01:53:00
10:53 PM,51.1,46.0,83,30.08,6.0,Calm,Calm,-,N/A,,Haze,0,2012-10-10 02:53:00
11:53 PM,50.0,45.0,83,30.07,5.0,Calm,Calm,-,N/A,,Haze,0,2012-10-10 03:53:00